Regional Weather Roundup
Issued by NWS

Home | Current Version | Previous Version | Text Only | Print | Product List | Glossary Off
Versions: 1 2 3 4 5 6 7 8 9 10 11 12 13 14 15 16 17 18 19 20 21 22 23 24 25 26 27 28 29 30 31 32 33 34 35 36 37 38 39 40 41 42 43 44 45 46 47 48 49 50

000
ASUS43 KIND 102059
RWRIN

WEATHER ROUNDUP FOR INDIANA
NATIONAL WEATHER SERVICE INDIANAPOLIS IN
500 PM EDT THU JUL 10 2014

NOTE: "FAIR" INDICATES FEW OR NO CLOUDS BELOW 12,000 FEET WITH NO
SIGNIFICANT WEATHER AND/OR OBSTRUCTIONS TO VISIBILITY.

* - STATION DOES NOT REPORT WEATHER SUCH AS PRECIPITATION OR FOG.

+ - STATION NOT QUALITY CONTROLLED BY THE NATIONAL WEATHER SERVICE.
    USE DATA WITH CAUTION...ESPECIALLY DEWPOINT AND RELATIVE
    HUMIDITY OBSERVATIONS.

INZ001>003-010>013-019-020-102200-
NORTHWEST INDIANA

CITY           SKY/WX    TMP DP  RH WIND       PRES   REMARKS
GARY /AIRPORT/ SUNNY     75  54  46 E18       30.17S
VALPARAISO     SUNNY     76  50  40 NE8       30.17F

$$

LMZ046-743>745-102200-
SOUTHERN LAKE MICHIGAN

STATION/POSITION TIME  TEMP WIND        PRES
                       AIR  DIR/SP/G
                 (UTC) (F)  (DEG/KT/KT) (MB)
MICHIGAN CITY    2000   68   10/  7/  9   N/A

$$

INZ004-005-014>016-021>024-102200-
NORTH CENTRAL INDIANA

CITY           SKY/WX    TMP DP  RH WIND       PRES   REMARKS
GOSHEN         MOSUNNY   76  52  43 E6        30.16F
SOUTH BEND     SUNNY     77  50  38 NW8       30.17S

$$

INZ006>009-017-018-025>027-102200-
NORTHEAST INDIANA

CITY           SKY/WX    TMP DP  RH WIND       PRES   REMARKS
ANGOLA *+      SUNNY     75  54  46 VRB3      30.16F
FORT WAYNE     MOSUNNY   77  51  40 VRB3      30.15F

$$

INZ028-029-035-036-043>045-051>053-102200-
WEST CENTRAL INDIANA

CITY           SKY/WX    TMP DP  RH WIND       PRES   REMARKS
GREENCASTLE +  MOSUNNY   73  54  49 N7        30.14S
LAFAYETTE      MOSUNNY   78  54  43 N7G17     30.14F
TERRE HAUTE    SUNNY     80  54  40 NE3       30.13S

$$

INZ030>032-037>040-046>048-054>057-064-065-102200-
CENTRAL INDIANA

CITY           SKY/WX    TMP DP  RH WIND       PRES   REMARKS
INDIANAPOLIS   MOSUNNY   78  51  38 NE9       30.12F
-EAGLE CREEK   SUNNY     78  50  37 NW10      30.13F
KOKOMO *+      MOSUNNY   77  52  41 NE9       30.15S
MT COMFORT *+  SUNNY     79  54  41 NE5       30.14F
SHELBYVILLE    PTSUNNY   78  56  46 E5        30.12F

$$

INZ033-034-041-042-049-050-058-059-102200-
EAST CENTRAL INDIANA

CITY           SKY/WX    TMP DP  RH WIND       PRES   REMARKS
MUNCIE         MOSUNNY   78  53  41 NE7       30.15S

$$

INZ060-061-067>069-081>083-085>088-102200-
SOUTHWEST INDIANA

CITY           SKY/WX    TMP DP  RH WIND       PRES   REMARKS
EVANSVILLE     MOSUNNY   85  53  33 VRB3      30.09F
HUNTINGBURG *+ SUNNY     82  55  39 NE6       30.09F

$$

INZ062-063-066-070>080-084-089>092-102200-
SOUTH CENTRAL AND SOUTHEAST INDIANA

CITY           SKY/WX    TMP DP  RH WIND       PRES   REMARKS
BLOOMINGTON    MOSUNNY   81  55  40 N7        30.12F

$$




USA.gov is the U.S. government's official web portal to all federal, state and local government web resources and services.